EW1577 Weather Reports


Display with metric or nautical units.
time (UTC)temp
F
wind
direction
speed
MPH
gust
MPH
rain 1hr
in
rain 24hr
in
rain mn
in
humidity
%
barometer
mb
20180816234520 76 68 1.0 4.0 0.00 0.25 0.25 98 1015.8
20180816234020 76 180 2.0 3.0 0.00 0.25 0.25 98 1015.1
20180816233514 76 113 1.0 2.0 0.00 0.25 0.25 98 1015.5
20180816233015 75 113 1.0 2.0 0.00 0.25 0.25 98 1015.1
20180816232512 75 90 0.0 2.0 0.00 0.25 0.25 98 1014.7
20180816232014 75 203 0.0 2.0 0.00 0.25 0.25 98 1015.5
20180816231507 75 248 1.0 2.0 0.00 0.25 0.25 98 1015.1
20180816230956 75 90 0.0 2.0 0.00 0.25 0.25 98 1015.5
20180816230451 75 158 0.0 2.0 0.00 0.25 0.25 98 1016.2
20180816225945 75 225 0.0 1.0 0.00 0.25 0.25 98 1015.1
20180816225441 75 248 0.0 2.0 0.00 0.25 0.25 98 1015.5
20180816224945 75 113 1.0 2.0 0.00 0.25 0.25 98 1016.2
20180816224438 75 158 1.0 3.0 0.00 0.25 0.25 98 1016.2
20180816223936 75 180 0.0 3.0 0.00 0.25 0.25 98 1015.5
20180816223435 75 225 0.0 1.0 0.00 0.25 0.25 98 1015.8
20180816222928 75 225 0.0 1.0 0.00 0.25 0.25 98 1015.8
20180816222421 74 180 0.0 2.0 0.00 0.25 0.25 98 1015.8
20180816221916 74 225 0.0 2.0 0.00 0.25 0.25 98 1015.8
20180816221417 74 203 1.0 5.0 0.00 0.25 0.25 98 1015.5
20180816220915 74 225 2.0 5.0 0.00 0.25 0.25 98 1015.5
20180816220415 74 113 1.0 3.0 0.00 0.25 0.25 98 1015.5
20180816215914 74 180 1.0 5.0 0.00 0.25 0.25 98 1015.5
20180816215412 74 270 2.0 5.0 0.00 0.25 0.25 98 1016.2
20180816214900 74 158 2.0 4.0 0.00 0.25 0.25 98 1015.5
20180816214358 74 248 2.0 5.0 0.00 0.25 0.25 98 1015.8
20180816213852 74 225 2.0 8.0 0.00 0.25 0.25 98 1015.5
20180816213346 75 225 2.0 8.0 0.00 0.25 0.25 98 1016.2
20180816212843 75 225 1.0 3.0 0.00 0.25 0.25 98 1016.2
20180816212342 74 225 1.0 3.0 0.00 0.25 0.25 98 1015.8
20180816211843 74 315 2.0 4.0 0.00 0.25 0.25 98 1015.8
20180816211343 74 248 2.0 4.0 0.00 0.25 0.25 98 1016.2
20180816210839 74 248 2.0 4.0 0.00 0.25 0.25 98 1016.2
20180816210336 74 180 1.0 3.0 0.00 0.25 0.25 98 1016.2
20180816205831 74 225 2.0 5.0 0.00 0.25 0.25 98 1015.5
20180816205334 74 158 2.0 5.0 0.00 0.25 0.25 98 1015.5
20180816204835 74 23 2.0 5.0 0.00 0.25 0.25 98 1016.5
20180816204330 74 248 2.0 5.0 0.00 0.25 0.25 98 1015.5
20180816203823 75 113 3.0 5.0 0.00 0.25 0.25 98 1016.5
20180816203324 75 270 2.0 4.0 0.00 0.25 0.25 98 1016.2
20180816202823 74 293 2.0 6.0 0.00 0.25 0.25 98 1015.8
20180816202327 74 293 2.0 7.0 0.00 0.25 0.25 98 1016.2
20180816201822 73 180 3.0 7.0 0.00 0.25 0.25 98 1016.5
20180816201321 73 180 2.0 6.0 0.00 0.25 0.25 98 1015.5
20180816200819 73 225 2.0 6.0 0.00 0.25 0.25 98 1016.5
20180816200312 73 270 3.0 7.0 0.00 0.25 0.25 98 1015.8
20180816195759 72 225 3.0 7.0 0.00 0.25 0.25 98 1016.5
20180816195255 72 270 3.0 6.0 0.00 0.25 0.25 98 1016.5
20180816194751 73 270 3.0 6.0 0.00 0.25 0.25 98 1016.5
20180816194250 73 68 3.0 6.0 0.00 0.25 0.25 98 1015.8
20180816193752 73 248 2.0 6.0 0.00 0.25 0.25 98 1017.2
20180816193240 72 270 4.0 7.0 0.00 0.25 0.25 98 1016.2
20180816192741 73 180 3.0 5.0 0.00 0.25 0.25 98 1016.5
20180816192241 73 248 2.0 4.0 0.00 0.25 0.25 98 1016.5
20180816191743 73 248 2.0 4.0 0.00 0.25 0.25 98 1016.9
20180816191239 73 180 2.0 8.0 0.00 0.25 0.25 98 1016.9
20180816190741 73 68 3.0 8.0 0.00 0.25 0.25 98 1016.5
20180816190237 73 203 2.0 8.0 0.00 0.25 0.25 98 1016.5
20180816185736 74 135 3.0 8.0 0.00 0.25 0.25 98 1016.5
20180816185231 74 23 3.0 7.0 0.00 0.25 0.25 98 1016.5
20180816184717 74 203 2.0 7.0 0.00 0.25 0.25 98 1016.5
20180816184219 75 90 3.0 7.0 0.01 0.25 0.25 98 1017.2
20180816183720 76 248 3.0 5.0 0.02 0.25 0.25 98 1017.5
20180816183205 77 45 2.0 5.0 0.03 0.25 0.25 98 1016.9
20180816182655 76 113 3.0 6.0 0.03 0.25 0.25 98 1017.5
20180816182148 75 68 3.0 8.0 0.04 0.25 0.25 98 1017.5
20180816181644 74 180 2.0 8.0 0.04 0.25 0.25 98 1017.9
20180816181139 74 248 2.0 3.0 0.05 0.25 0.25 98 1017.9
20180816180634 73 180 2.0 3.0 0.05 0.25 0.25 98 1018.2
20180816180134 73 90 2.0 2.0 0.05 0.25 0.25 98 1017.5
20180816175635 71 225 1.0 4.0 0.05 0.25 0.25 98 1017.9
20180816175126 71 203 2.0 4.0 0.05 0.25 0.25 98 1017.5
20180816174622 71 248 2.0 3.0 0.06 0.25 0.25 98 1017.5
20180816174122 71 203 2.0 8.0 0.04 0.23 0.23 98 1017.5
20180816173621 71 225 3.0 8.0 0.05 0.22 0.23 98 1017.5
20180816173117 71 203 4.0 9.0 0.06 0.22 0.22 98 1017.9
20180816172625 71 135 4.0 9.0 0.07 0.22 0.22 98 1017.9
20180816172116 71 203 3.0 6.0 0.07 0.21 0.21 98 1019.0
20180816171613 71 225 2.0 5.0 0.07 0.21 0.21 98 1018.5
20180816171113 71 158 2.0 5.0 0.06 0.20 0.20 98 1017.5
20180816170611 71 338 2.0 5.0 0.06 0.20 0.20 98 1017.5
20180816170104 71 293 2.0 4.0 0.06 0.20 0.20 98 1017.9
20180816165604 71 23 2.0 3.0 0.06 0.20 0.20 98 1018.2
20180816165105 71 203 2.0 3.0 0.07 0.20 0.20 98 1017.5
20180816164555 71 203 2.0 5.0 0.06 0.19 0.19 98 1017.5
20180816164051 71 45 2.0 5.0 0.07 0.19 0.19 98 1017.9
20180816163545 72 225 2.0 4.0 0.05 0.17 0.17 98 1018.2
20180816163032 72 158 2.0 4.0 0.03 0.15 0.16 98 1017.5
20180816162533 72 225 2.0 4.0 0.03 0.15 0.15 98 1017.5
20180816162025 73 113 1.0 3.0 0.02 0.14 0.14 98 1017.9
20180816161526 73 270 1.0 4.0 0.02 0.14 0.14 98 1017.2
20180816161027 72 158 2.0 4.0 0.02 0.14 0.14 98 1017.5
20180816160524 72 135 2.0 6.0 0.02 0.14 0.14 98 1017.9
20180816160019 72 248 2.0 6.0 0.02 0.14 0.14 98 1018.5
20180816155516 72 180 2.0 3.0 0.02 0.14 0.14 98 1017.9
20180816155014 72 203 1.0 3.0 0.01 0.13 0.13 98 1017.5
20180816154510 72 180 2.0 3.0 0.01 0.13 0.13 98 1018.2
20180816154014 72 23 2.0 6.0 0.00 0.12 0.12 98 1017.9
20180816153505 72 135 2.0 6.0 0.00 0.12 0.12 98 1018.5
20180816153007 73 113 2.0 5.0 0.00 0.12 0.12 98 1018.2
20180816152500 72 248 2.0 4.0 0.00 0.12 0.12 98 1018.2
20180816151951 72 225 2.0 4.0 0.00 0.12 0.12 98 1018.2
20180816151444 73 23 1.0 4.0 0.00 0.12 0.12 98 1017.9
20180816150942 72 180 2.0 5.0 0.00 0.12 0.12 98 1017.5
20180816150436 72 248 2.0 6.0 0.00 0.12 0.12 98 1017.9
20180816145930 73 248 2.0 7.0 0.00 0.12 0.12 98 1017.9
20180816145421 73 68 2.0 7.0 0.00 0.12 0.12 98 1017.9
20180816144921 73 270 1.0 3.0 0.00 0.12 0.12 98 1017.9
20180816144422 73 225 2.0 4.0 0.00 0.12 0.12 98 1018.2
20180816143920 73 248 2.0 5.0 0.00 0.12 0.12 98 1017.9
20180816143419 73 338 1.0 5.0 0.00 0.12 0.12 98 1017.5
20180816142919 72 90 1.0 3.0 0.00 0.12 0.12 98 1017.2
20180816142414 72 270 1.0 3.0 0.00 0.12 0.12 98 1017.9
20180816141909 72 315 0.0 2.0 0.00 0.12 0.12 98 1017.2
20180816141408 71 315 1.0 3.0 0.00 0.12 0.12 98 1017.5
20180816140916 71 45 1.0 3.0 0.00 0.12 0.12 98 1017.2
20180816140416 71 90 1.0 2.0 0.00 0.12 0.12 98 1017.2
20180816135907 71 225 1.0 2.0 0.00 0.12 0.12 98 1017.5
20180816135405 71 270 1.0 4.0 0.00 0.12 0.12 98 1017.9
20180816134905 71 68 1.0 4.0 0.00 0.12 0.12 98 1017.5
20180816134358 71 113 1.0 4.0 0.00 0.12 0.12 98 1017.9
20180816133900 70 45 1.0 4.0 0.00 0.12 0.12 98 1017.5
20180816133357 70 90 1.0 4.0 0.00 0.12 0.12 98 1017.5
20180816132858 70 225 1.0 4.0 0.00 0.12 0.12 98 1017.2
20180816132354 70 248 0.0 4.0 0.00 0.12 0.12 98 1017.5
20180816131854 70 270 1.0 4.0 0.00 0.12 0.12 98 1017.9
20180816131355 70 180 1.0 4.0 0.00 0.12 0.12 98 1017.2
20180816130845 70 158 2.0 3.0 0.00 0.12 0.12 98 1017.2
20180816130345 70 45 1.0 3.0 0.00 0.12 0.12 98 1017.9
20180816125845 70 158 2.0 3.0 0.00 0.12 0.12 98 1017.5
20180816125343 70 248 1.0 2.0 0.00 0.12 0.12 98 1017.9
20180816124843 70 90 1.0 2.0 0.00 0.12 0.12 98 1016.9
20180816124341 69 90 1.0 2.0 0.00 0.12 0.12 98 1017.2
20180816123840 69 90 1.0 2.0 0.01 0.12 0.12 98 1017.5
20180816123332 69 68 1.0 3.0 0.01 0.12 0.12 98 1016.9
20180816122833 69 113 1.0 3.0 0.01 0.12 0.12 98 1016.9
20180816122333 69 90 1.0 2.0 0.01 0.12 0.12 98 1017.2
20180816121832 69 90 1.0 2.0 0.01 0.12 0.12 98 1017.2
20180816121329 69 90 0.0 1.0 0.01 0.12 0.12 98 1017.9
20180816120831 69 68 0.0 2.0 0.01 0.12 0.12 98 1017.5
20180816120324 69 68 1.0 2.0 0.01 0.12 0.12 98 1017.5
20180816115821 69 90 1.0 2.0 0.01 0.12 0.12 98 1016.9
20180816115320 69 68 1.0 2.0 0.01 0.12 0.12 98 1017.5
20180816114821 69 90 0.0 1.0 0.01 0.12 0.12 98 1018.2
20180816114318 69 225 0.0 1.0 0.01 0.12 0.12 98 1017.5
20180816113817 69 203 0.0 1.0 0.00 0.11 0.11 98 1017.5
20180816113317 69 45 0.0 1.0 0.00 0.11 0.11 98 1017.5
20180816112816 69 135 0.0 1.0 0.00 0.11 0.11 98 1018.2
20180816112315 69 203 0.0 3.0 0.00 0.11 0.11 98 1017.5
20180816111809 69 90 1.0 3.0 0.00 0.11 0.11 98 1017.5
20180816111310 69 293 1.0 4.0 0.00 0.11 0.11 98 1017.9
20180816110806 69 68 1.0 4.0 0.00 0.11 0.11 98 1016.9
20180816110305 69 203 1.0 2.0 0.00 0.11 0.11 98 1017.5
20180816105806 69 180 1.0 2.0 0.00 0.11 0.11 98 1017.2
20180816105306 69 225 1.0 2.0 0.01 0.11 0.11 98 1016.9
20180816104758 69 225 1.0 2.0 0.01 0.11 0.11 98 1016.9
20180816104258 69 203 0.0 1.0 0.05 0.11 0.11 98 1016.9
20180816103755 69 248 0.0 1.0 0.07 0.11 0.11 98 1016.9
20180816103254 69 90 0.0 1.0 0.08 0.11 0.11 98 1016.5
20180816102748 69 68 0.0 1.0 0.09 0.11 0.11 98 1017.5
20180816102242 69 180 0.0 1.0 0.10 0.11 0.11 98 1016.9
20180816101745 69 248 0.0 2.0 0.10 0.11 0.11 98 1017.5
20180816101242 69 180 1.0 2.0 0.11 0.11 0.11 98 1017.2
20180816100732 69 248 1.0 1.0 0.11 0.11 0.11 98 1016.9
20180816100220 69 270 1.0 2.0 0.11 0.11 0.11 98 1016.5
20180816095718 69 45 0.0 2.0 0.11 0.11 0.11 98 1017.2
20180816095219 69 158 0.0 1.0 0.10 0.10 0.10 98 1017.2
20180816094716 69 180 0.0 1.0 0.09 0.09 0.09 98 1017.2
20180816094215 70 180 0.0 1.0 0.06 0.06 0.06 98 1017.2
20180816093716 70 315 0.0 1.0 0.04 0.04 0.04 98 1016.9
20180816093214 70 248 0.0 1.0 0.02 0.02 0.03 98 1016.5
20180816092714 70 203 0.0 1.0 0.02 0.02 0.02 98 1017.2
20180816092206 69 225 0.0 1.0 0.01 0.01 0.01 98 1016.9
20180816091702 70 203 1.0 3.0 0.01 0.01 0.01 98 1016.9
20180816091158 70 225 1.0 3.0 0.00 0.00 0.00 98 1016.9
20180816090657 70 225 1.0 2.0 0.00 0.00 0.00 98 1016.5
20180816090146 0 0.0 0.0 0.00 0.00 0.00
20180816084016 69 113 1.0 3.0 0.00 0.00 0.00 98 1016.2
20180816083556 69 90 2.0 4.0 0.00 0.00 0.00 98 1015.8
20180816083016 69 90 2.0 4.0 0.00 0.00 0.00 98 1016.5
20180816082508 69 45 2.0 3.0 0.00 0.00 0.00 98 1016.2
20180816081959 69 90 0.0 2.0 0.00 0.00 0.00 98 1015.8
20180816081502 69 90 0.0 1.0 0.00 0.00 0.00 98 1016.5
20180816080957 69 68 0.0 1.0 0.00 0.00 0.00 98 1016.5
20180816080458 0 0.0 0.0 0.00 0.00 0.00
20180816074133 68 90 0.0 1.0 0.00 0.00 0.00 98 1016.2
20180816073623 68 68 0.0 1.0 0.00 0.00 0.00 98 1015.8
20180816073118 69 90 0.0 0.0 0.00 0.00 0.00 98 1017.2
20180816072622 68 45 0.0 0.0 0.00 0.00 0.00 98 1016.9
20180816072121 69 68 0.0 0.0 0.00 0.00 0.00 98 1016.2
20180816071614 69 113 0.0 0.0 0.00 0.00 0.00 98 1016.2
20180816071114 69 68 0.0 1.0 0.00 0.00 0.00 98 1016.2
20180816070614 69 225 1.0 2.0 0.00 0.00 0.00 98 1016.5
20180816070106 69 45 1.0 2.0 0.00 0.00 0.00 98 1016.2
20180816065603 69 68 1.0 2.0 0.00 0.00 0.00 98 1016.9
20180816065100 69 45 1.0 2.0 0.00 0.00 0.00 98 1016.5
20180816064553 69 90 1.0 1.0 0.00 0.00 0.00 98 1016.2
20180816064056 69 45 0.0 1.0 0.00 0.00 0.00 98 1016.5
20180816063547 69 68 0.0 0.0 0.00 0.00 0.00 98 1016.5
20180816063040 69 158 0.0 0.0 0.00 0.00 0.00 98 1016.5
20180816062533 69 113 0.0 1.0 0.00 0.00 0.00 98 1016.5
20180816062037 69 68 0.0 1.0 0.00 0.00 0.00 98 1016.9
20180816061528 69 113 0.0 1.0 0.00 0.00 0.00 98 1016.5
20180816061027 69 113 0.0 1.0 0.00 0.00 0.00 98 1016.9
20180816060527 69 113 0.0 0.0 0.00 0.00 0.00 98 1016.5
20180816060024 70 68 0.0 0.0 0.00 0.00 0.00 98 1017.5
20180816055520 70 113 0.0 0.0 0.00 0.00 0.00 98 1016.9
20180816055023 70 45 0.0 0.0 0.00 0.00 0.00 98 1016.9
20180816054520 70 90 0.0 2.0 0.00 0.00 0.00 98 1017.9
20180816054008 71 248 0.0 2.0 0.00 0.00 0.00 98 1017.5
20180816053515 71 90 0.0 3.0 0.00 0.00 0.00 98 1017.9
20180816053004 71 45 1.0 3.0 0.00 0.00 0.00 98 1018.2
20180816052506 71 293 0.0 2.0 0.00 0.00 0.00 98 1017.5
20180816051959 71 203 1.0 2.0 0.00 0.00 0.00 98 1017.5
20180816051453 71 180 0.0 1.0 0.00 0.00 0.00 98 1017.9
20180816050954 71 203 0.0 2.0 0.00 0.00 0.00 98 1017.5
20180816050447 71 293 1.0 2.0 0.00 0.00 0.00 98 1017.9
20180816045949 71 203 0.0 2.0 0.00 0.00 0.00 98 1018.5
20180816045449 71 158 0.0 3.0 0.00 0.00 0.00 98 1018.5
20180816044940 71 135 1.0 3.0 0.00 0.00 0.00 98 1018.5
20180816044427 71 225 1.0 3.0 0.00 0.00 0.00 98 1017.9
20180816043933 71 135 1.0 3.0 0.00 0.00 0.00 98 1018.2
20180816043423 71 203 1.0 6.0 0.00 0.00 0.00 98 1019.0
20180816042921 71 225 2.0 6.0 0.00 0.00 0.00 98 1017.9
20180816042420 71 225 1.0 3.0 0.00 0.00 0.00 98 1017.5
20180816041913 71 135 1.0 2.0 0.00 0.00 0.00 98 1018.2
20180816041408 71 225 0.0 1.0 0.00 0.00 0.00 98 1017.9
20180816040910 71 158 0.0 1.0 0.00 0.00 0.00 98 1018.2
20180816040403 71 113 0.0 1.0 0.00 0.00 0.00 98 1017.2
20180816035859 71 158 0.0 1.0 0.00 0.00 0.00 98 1017.2
20180816035401 71 225 0.0 0.0 0.00 0.00 0.00 98 1017.9
20180816034902 71 225 0.0 3.0 0.00 0.00 0.00 98 1017.9
20180816034355 71 180 0.0 3.0 0.00 0.00 0.00 98 1016.9
20180816033857 71 45 0.0 0.0 0.00 0.00 0.00 98 1017.9
20180816033348 71 135 0.0 1.0 0.00 0.00 0.00 98 1017.5
20180816032846 71 270 0.0 1.0 0.00 0.00 0.00 98 1017.5
20180816032346 71 225 0.0 0.0 0.00 0.00 0.00 98 1016.9
20180816031843 71 158 0.0 0.0 0.00 0.00 0.00 98 1017.2
20180816031301 70 248 0.0 0.0 0.00 0.00 0.00 98 1017.5
20180816030759 71 113 0.0 1.0 0.00 0.00 0.00 98 1017.5
20180816030253 71 113 0.0 1.0 0.00 0.00 0.00 98 1017.2
20180816025751 71 158 0.0 1.0 0.00 0.00 0.00 98 1016.9
20180816025248 71 113 0.0 1.0 0.00 0.00 0.00 98 1016.9
20180816024745 71 225 0.0 1.0 0.00 0.00 0.00 98 1017.5
20180816024232 71 180 0.0 1.0 0.00 0.00 0.00 98 1016.9
20180816023756 71 135 0.0 0.0 0.00 0.00 0.00 98 1017.5
20180816023218 71 158 0.0 0.0 0.00 0.00 0.00 98 1016.5
20180816022712 71 203 0.0 1.0 0.00 0.00 0.00 98 1017.2
20180816022200 71 203 0.0 1.0 0.00 0.00 0.00 98 1017.2
20180816021701 70 158 0.0 0.0 0.00 0.00 0.00 98 1016.2
20180816021158 70 135 0.0 0.0 0.00 0.00 0.00 98 1016.9
20180816020648 70 135 0.0 0.0 0.00 0.00 0.00 98 1016.5
20180816020137 70 180 0.0 0.0 0.00 0.00 0.00 98 1017.2
20180816015636 71 158 0.0 0.0 0.00 0.00 0.00 98 1016.9
20180816015135 71 158 0.0 0.0 0.00 0.00 0.00 98 1016.5
20180816014630 71 203 0.0 0.0 0.00 0.00 0.00 98 1016.9
20180816014131 71 158 0.0 0.0 0.00 0.00 0.00 98 1015.8
20180816013638 71 90 0.0 0.0 0.00 0.00 0.00 98 1015.8
20180816013120 71 113 0.0 0.0 0.00 0.00 0.00 98 1015.5
20180816012614 71 180 0.0 0.0 0.00 0.00 0.00 98 1016.5
20180816012108 71 158 0.0 0.0 0.00 0.00 0.00 98 1015.8
20180816011605 71 113 0.0 0.0 0.00 0.00 0.00 98 1016.5
20180816011103 71 158 0.0 0.0 0.00 0.00 0.00 98 1015.8
20180816010611 71 90 0.0 0.0 0.00 0.00 0.00 98 1015.8
20180816010102 72 180 0.0 0.0 0.00 0.00 0.00 98 1016.5
20180816005608 72 203 0.0 1.0 0.00 0.00 0.00 98 1016.2
20180816005056 72 203 0.0 1.0 0.00 0.00 0.00 98 1016.2
20180816004554 72 225 0.0 1.0 0.00 0.00 0.00 98 1016.9
20180816004051 73 225 0.0 0.0 0.00 0.00 0.00 98 1015.8
20180816003553 73 225 0.0 1.0 0.00 0.00 0.00 98 1015.8
20180816003050 73 90 0.0 1.0 0.00 0.00 0.00 98 1016.5
20180816002550 73 270 0.0 1.0 0.00 0.00 0.00 98 1016.9
20180816002044 73 90 0.0 2.0 0.00 0.00 0.00 98 1016.2
20180816001534 73 90 1.0 2.0 0.00 0.00 0.00 98 1016.9
20180816001028 74 113 0.0 2.0 0.00 0.00 0.00 98 1016.5
20180816000534 74 225 0.0 2.0 0.00 0.00 0.00 95 1016.2
20180816000023 74 113 0.0 3.0 0.00 0.00 0.00 88 1016.5
20180815235523 75 158 2.0 3.0 0.00 0.00 0.00 86 1015.8
20180815235021 75 270 2.0 4.0 0.00 0.00 0.00 83 1015.8